Time,TemperatureF,DewpointF,PressureIn,WindDirection,WindDirectionDegrees,WindSpeedMPH,WindSpeedGustMPH,Humidity,HourlyPrecipIn,Conditions,Clouds,dailyrainin,SoftwareType,DateUTC
2013-04-23 00:02:00,55.0,46.0,30.02,SSE,150,3.0,-999.0,71,-99.99,,,-99.99,,2013-04-23 05:02:00,
2013-04-23 00:12:00,55.0,46.0,30.02,SSE,150,3.0,-999.0,71,-99.99,,,-99.99,,2013-04-23 05:12:00,
2013-04-23 00:22:00,54.0,46.0,29.99,East,100,3.0,-999.0,76,-99.99,,,-99.99,,2013-04-23 05:22:00,
2013-04-23 00:32:00,55.0,45.0,29.99,North,0,0.0,-999.0,66,-99.99,,,-99.99,,2013-04-23 05:32:00,
2013-04-23 00:42:00,55.0,45.0,30.00,North,0,0.0,-999.0,66,-99.99,,,-99.99,,2013-04-23 05:42:00,
2013-04-23 00:52:00,54.0,46.0,29.99,ESE,120,3.0,-999.0,76,-99.99,,,-99.99,,2013-04-23 05:52:00,
2013-04-23 01:01:00,54.0,46.0,29.99,ESE,120,3.0,-999.0,76,-99.99,,,-99.99,,2013-04-23 06:01:00,
2013-04-23 01:12:00,54.0,46.0,29.99,ESE,120,3.0,-999.0,76,-99.99,,,-99.99,,2013-04-23 06:12:00,
2013-04-23 01:21:00,54.0,46.0,29.98,North,0,0.0,-999.0,76,-99.99,,,-99.99,,2013-04-23 06:21:00,
2013-04-23 01:33:00,54.0,46.0,29.99,SE,130,3.0,-999.0,76,-99.99,,,-99.99,,2013-04-23 06:33:00,
2013-04-23 01:42:00,54.0,46.0,29.99,North,0,0.0,-999.0,76,-99.99,,,-99.99,,2013-04-23 06:42:00,
2013-04-23 01:52:00,55.0,45.0,30.00,North,0,0.0,-999.0,66,-99.99,,,-99.99,,2013-04-23 06:52:00,
2013-04-23 02:02:00,55.0,45.0,30.00,North,0,0.0,-999.0,66,-99.99,,,-99.99,,2013-04-23 07:02:00,
2013-04-23 02:11:00,55.0,45.0,30.00,North,0,0.0,-999.0,66,-99.99,,,-99.99,,2013-04-23 07:11:00,
2013-04-23 02:21:00,54.0,46.0,29.98,North,0,0.0,-999.0,76,-99.99,,,-99.99,,2013-04-23 07:21:00,
2013-04-23 02:32:00,54.0,46.0,29.98,North,0,0.0,-999.0,76,-99.99,,,-99.99,,2013-04-23 07:32:00,
2013-04-23 02:42:00,54.0,46.0,29.98,SSE,150,3.0,-999.0,76,-99.99,,,-99.99,,2013-04-23 07:42:00,
2013-04-23 02:52:00,54.0,46.0,29.99,North,0,0.0,-999.0,76,-99.99,,,-99.99,,2013-04-23 07:52:00,
2013-04-23 03:02:00,54.0,46.0,29.99,North,0,0.0,-999.0,76,-99.99,,,-99.99,,2013-04-23 08:02:00,
2013-04-23 03:11:00,54.0,46.0,29.99,North,0,0.0,-999.0,76,-99.99,,,-99.99,,2013-04-23 08:11:00,
2013-04-23 03:21:00,54.0,48.0,29.98,North,0,0.0,-999.0,81,-99.99,,,-99.99,,2013-04-23 08:21:00,
2013-04-23 03:31:00,52.0,48.0,29.97,North,0,0.0,-999.0,87,-99.99,,,-99.99,,2013-04-23 08:31:00,
2013-04-23 03:42:00,52.0,48.0,29.97,North,0,0.0,-999.0,87,-99.99,,,-99.99,,2013-04-23 08:42:00,
2013-04-23 03:52:00,52.0,48.0,29.95,SSE,160,6.0,-999.0,87,-99.99,,,-99.99,,2013-04-23 08:52:00,
2013-04-23 04:01:00,52.0,48.0,29.95,SSE,160,6.0,-999.0,87,-99.99,,,-99.99,,2013-04-23 09:01:00,
2013-04-23 04:11:00,52.0,48.0,29.95,SSE,160,6.0,-999.0,87,-99.99,,,-99.99,,2013-04-23 09:11:00,
2013-04-23 04:21:00,54.0,46.0,29.95,SW,220,5.0,-999.0,76,-99.99,,,-99.99,,2013-04-23 09:21:00,
2013-04-23 04:33:00,54.0,46.0,29.95,SW,220,7.0,-999.0,76,-99.99,,,-99.99,,2013-04-23 09:33:00,
2013-04-23 04:43:00,55.0,46.0,29.95,SW,220,10.0,-999.0,71,-99.99,,,-99.99,,2013-04-23 09:43:00,
2013-04-23 04:53:00,55.0,46.0,29.95,SW,220,10.0,-999.0,71,-99.99,,,-99.99,,2013-04-23 09:53:00,
2013-04-23 05:02:00,55.0,46.0,29.95,SW,220,10.0,-999.0,71,-99.99,,,-99.99,,2013-04-23 10:02:00,
2013-04-23 05:13:00,55.0,46.0,29.95,SW,220,10.0,-999.0,71,-99.99,,,-99.99,,2013-04-23 10:13:00,
2013-04-23 05:22:00,54.0,46.0,29.96,West,260,7.0,-999.0,76,-99.99,,,-99.99,,2013-04-23 10:22:00,
2013-04-23 05:33:00,54.0,48.0,29.97,West,280,9.0,-999.0,81,-99.99,,,-99.99,,2013-04-23 10:33:00,
2013-04-23 05:43:00,54.0,48.0,29.97,WNW,300,9.0,-999.0,81,-99.99,,,-99.99,,2013-04-23 10:43:00,
2013-04-23 05:52:00,54.0,48.0,29.97,WNW,300,9.0,-999.0,81,-99.99,,,-99.99,,2013-04-23 10:52:00,
2013-04-23 06:03:00,54.0,48.0,29.97,WNW,300,9.0,-999.0,81,-99.99,,,-99.99,,2013-04-23 11:03:00,
2013-04-23 06:12:00,54.0,48.0,29.97,WNW,300,9.0,-999.0,81,-99.99,,,-99.99,,2013-04-23 11:12:00,
2013-04-23 06:21:00,54.0,48.0,29.97,WNW,300,9.0,-999.0,81,-99.99,,,-99.99,,2013-04-23 11:21:00,
2013-04-23 06:32:00,50.0,48.0,29.97,NNW,330,9.0,-999.0,93,-99.99,,,-99.99,,2013-04-23 11:32:00,
2013-04-23 06:43:00,50.0,50.0,29.97,NNW,340,9.0,-999.0,100,-99.99,,,-99.99,,2013-04-23 11:43:00,
2013-04-23 06:53:00,48.0,48.0,29.98,North,350,8.0,-999.0,100,-99.99,,,-99.99,,2013-04-23 11:53:00,
2013-04-23 07:02:00,48.0,48.0,29.98,North,350,8.0,-999.0,100,-99.99,,,-99.99,,2013-04-23 12:02:00,
2013-04-23 07:12:00,48.0,48.0,29.98,North,350,8.0,-999.0,100,-99.99,,,-99.99,,2013-04-23 12:12:00,
2013-04-23 07:22:00,48.0,48.0,29.98,North,350,8.0,-999.0,100,-99.99,,,-99.99,,2013-04-23 12:22:00,
2013-04-23 07:32:00,48.0,48.0,29.99,North,350,10.0,-999.0,100,-99.99,,,-99.99,,2013-04-23 12:32:00,
2013-04-23 07:42:00,48.0,48.0,30.00,North,350,10.0,-999.0,100,-99.99,,,-99.99,,2013-04-23 12:42:00,
2013-04-23 07:52:00,46.0,46.0,30.01,NNW,330,18.0,22.0,100,-99.99,,,-99.99,,2013-04-23 12:52:00,
2013-04-23 08:01:00,46.0,46.0,30.01,NNW,330,18.0,22.0,100,-99.99,,,-99.99,,2013-04-23 13:01:00,
2013-04-23 08:11:00,46.0,46.0,30.01,NNW,330,18.0,22.0,100,-99.99,,,-99.99,,2013-04-23 13:11:00,
2013-04-23 08:21:00,41.0,41.0,30.03,North,350,16.0,-999.0,100,-99.99,,,-99.99,,2013-04-23 13:21:00,
2013-04-23 08:32:00,41.0,41.0,30.04,North,350,16.0,21.0,100,-99.99,,,-99.99,,2013-04-23 13:32:00,
2013-04-23 08:42:00,41.0,41.0,30.04,North,350,16.0,21.0,100,-99.99,,,-99.99,,2013-04-23 13:42:00,
2013-04-23 08:52:00,41.0,41.0,30.04,North,350,13.0,-999.0,100,-99.99,,,-99.99,,2013-04-23 13:52:00,
2013-04-23 09:01:00,41.0,41.0,30.04,North,350,13.0,-999.0,100,-99.99,,,-99.99,,2013-04-23 14:01:00,
2013-04-23 09:11:00,41.0,41.0,30.04,North,350,13.0,-999.0,100,-99.99,,,-99.99,,2013-04-23 14:11:00,
2013-04-23 09:22:00,41.0,41.0,30.01,NNE,20,10.0,-999.0,100,-99.99,,,-99.99,,2013-04-23 14:22:00,
2013-04-23 09:32:00,41.0,41.0,30.01,NNE,20,9.0,-999.0,100,-99.99,,,-99.99,,2013-04-23 14:32:00,
2013-04-23 09:42:00,41.0,41.0,30.01,NNE,30,12.0,-999.0,100,-99.99,,,-99.99,,2013-04-23 14:42:00,
2013-04-23 09:52:00,41.0,41.0,30.01,NNE,30,12.0,-999.0,100,-99.99,,,-99.99,,2013-04-23 14:52:00,
2013-04-23 10:01:00,41.0,41.0,30.01,NNE,30,12.0,-999.0,100,-99.99,,,-99.99,,2013-04-23 15:01:00,
2013-04-23 10:12:00,41.0,41.0,29.99,NNE,20,9.0,-999.0,100,-99.99,,,-99.99,,2013-04-23 15:12:00,
2013-04-23 10:21:00,41.0,41.0,29.99,NNE,20,10.0,-999.0,100,-99.99,,,-99.99,,2013-04-23 15:21:00,
2013-04-23 10:32:00,41.0,41.0,30.00,North,10,13.0,-999.0,100,-99.99,,,-99.99,,2013-04-23 15:32:00,
2013-04-23 10:42:00,41.0,41.0,30.00,NNE,30,9.0,-999.0,100,-99.99,,,-99.99,,2013-04-23 15:42:00,
2013-04-23 10:53:00,41.0,41.0,30.00,NNE,20,9.0,-999.0,100,-99.99,,,-99.99,,2013-04-23 15:53:00,
2013-04-23 11:03:00,41.0,41.0,30.00,NNE,20,9.0,-999.0,100,-99.99,,,-99.99,,2013-04-23 16:03:00,
2013-04-23 11:12:00,41.0,41.0,30.00,NNE,20,9.0,-999.0,100,-99.99,,,-99.99,,2013-04-23 16:12:00,
2013-04-23 11:23:00,41.0,41.0,30.01,North,360,13.0,16.0,100,-99.99,,,-99.99,,2013-04-23 16:23:00,
2013-04-23 11:34:00,41.0,41.0,30.01,North,350,15.0,-999.0,100,-99.99,,,-99.99,,2013-04-23 16:34:00,
2013-04-23 11:43:00,41.0,41.0,30.02,North,360,14.0,20.0,100,-99.99,,,-99.99,,2013-04-23 16:43:00,
2013-04-23 11:53:00,39.0,39.0,30.01,North,360,15.0,22.0,100,-99.99,,,-99.99,,2013-04-23 16:53:00,
2013-04-23 12:02:00,39.0,39.0,30.01,North,360,15.0,22.0,100,-99.99,,,-99.99,,2013-04-23 17:02:00,
2013-04-23 12:11:00,39.0,39.0,30.01,North,360,15.0,22.0,100,-99.99,,,-99.99,,2013-04-23 17:11:00,
2013-04-23 12:22:00,39.0,39.0,30.00,North,360,15.0,-999.0,100,-99.99,,,-99.99,,2013-04-23 17:22:00,
2013-04-23 12:32:00,39.0,39.0,30.00,North,10,14.0,-999.0,100,-99.99,,,-99.99,,2013-04-23 17:32:00,
2013-04-23 12:43:00,39.0,39.0,30.00,North,350,13.0,-999.0,100,-99.99,,,-99.99,,2013-04-23 17:43:00,
2013-04-23 12:53:00,37.0,37.0,30.00,North,360,17.0,21.0,100,-99.99,,,-99.99,,2013-04-23 17:53:00,
2013-04-23 13:02:00,37.0,37.0,30.00,North,360,17.0,21.0,100,-99.99,,,-99.99,,2013-04-23 18:02:00,
2013-04-23 13:12:00,37.0,37.0,30.00,North,360,17.0,21.0,100,-99.99,,,-99.99,,2013-04-23 18:12:00,
2013-04-23 13:22:00,37.0,37.0,29.99,NNW,340,15.0,-999.0,100,-99.99,,,-99.99,,2013-04-23 18:22:00,
2013-04-23 13:32:00,37.0,37.0,29.99,North,350,17.0,-999.0,100,-99.99,,,-99.99,,2013-04-23 18:32:00,
2013-04-23 13:42:00,37.0,37.0,29.99,NNW,340,17.0,-999.0,100,-99.99,,,-99.99,,2013-04-23 18:42:00,
2013-04-23 13:52:00,37.0,37.0,29.99,NNW,340,17.0,-999.0,100,-99.99,,,-99.99,,2013-04-23 18:52:00,
2013-04-23 14:02:00,37.0,37.0,29.99,NNW,340,17.0,-999.0,100,-99.99,,,-99.99,,2013-04-23 19:02:00,
2013-04-23 14:11:00,37.0,37.0,29.99,NNW,340,17.0,-999.0,100,-99.99,,,-99.99,,2013-04-23 19:11:00,
2013-04-23 14:21:00,37.0,37.0,29.99,NNW,330,15.0,20.0,100,-99.99,,,-99.99,,2013-04-23 19:21:00,
2013-04-23 14:32:00,36.0,36.0,30.00,NNW,340,16.0,23.0,100,-99.99,,,-99.99,,2013-04-23 19:32:00,
2013-04-23 14:42:00,36.0,36.0,30.00,North,350,15.0,-999.0,100,-99.99,,,-99.99,,2013-04-23 19:42:00,
2013-04-23 14:52:00,37.0,37.0,30.01,North,350,16.0,-999.0,100,-99.99,,,-99.99,,2013-04-23 19:52:00,
2013-04-23 15:01:00,37.0,37.0,30.01,North,350,16.0,-999.0,100,-99.99,,,-99.99,,2013-04-23 20:01:00,
2013-04-23 15:11:00,37.0,37.0,30.01,North,350,16.0,-999.0,100,-99.99,,,-99.99,,2013-04-23 20:11:00,
2013-04-23 15:21:00,36.0,36.0,30.01,North,350,15.0,20.0,100,-99.99,,,-99.99,,2013-04-23 20:21:00,
2013-04-23 15:32:00,36.0,36.0,30.01,NNW,340,13.0,22.0,100,-99.99,,,-99.99,,2013-04-23 20:32:00,
2013-04-23 15:42:00,36.0,36.0,30.01,NNW,340,14.0,21.0,100,-99.99,,,-99.99,,2013-04-23 20:42:00,
2013-04-23 15:52:00,36.0,36.0,29.99,North,350,14.0,-999.0,100,-99.99,,,-99.99,,2013-04-23 20:52:00,
2013-04-23 16:02:00,36.0,36.0,29.99,North,350,14.0,-999.0,100,-99.99,,,-99.99,,2013-04-23 21:02:00,
2013-04-23 16:12:00,36.0,36.0,29.99,North,350,14.0,-999.0,100,-99.99,,,-99.99,,2013-04-23 21:12:00,
2013-04-23 16:21:00,36.0,36.0,30.00,NNW,340,16.0,20.0,100,-99.99,,,-99.99,,2013-04-23 21:21:00,
2013-04-23 16:33:00,36.0,36.0,30.00,North,350,14.0,-999.0,100,-99.99,,,-99.99,,2013-04-23 21:33:00,
2013-04-23 16:43:00,36.0,36.0,29.99,NNW,340,13.0,-999.0,100,-99.99,,,-99.99,,2013-04-23 21:43:00,
2013-04-23 16:52:00,36.0,36.0,29.99,NNW,340,13.0,18.0,100,-99.99,,,-99.99,,2013-04-23 21:52:00,
2013-04-23 17:03:00,36.0,36.0,29.99,NNW,340,13.0,18.0,100,-99.99,,,-99.99,,2013-04-23 22:03:00,
2013-04-23 17:12:00,36.0,36.0,29.99,NNW,340,13.0,18.0,100,-99.99,,,-99.99,,2013-04-23 22:12:00,
2013-04-23 17:22:00,36.0,36.0,29.99,NNW,340,13.0,18.0,100,-99.99,,,-99.99,,2013-04-23 22:22:00,
2013-04-23 17:33:00,36.0,36.0,30.00,North,350,14.0,-999.0,100,-99.99,,,-99.99,,2013-04-23 22:33:00,
2013-04-23 17:42:00,36.0,36.0,30.00,North,350,14.0,-999.0,100,-99.99,,,-99.99,,2013-04-23 22:42:00,
2013-04-23 17:52:00,36.0,36.0,30.00,North,350,13.0,-999.0,100,-99.99,,,-99.99,,2013-04-23 22:52:00,
2013-04-23 18:03:00,36.0,36.0,30.00,North,350,13.0,-999.0,100,-99.99,,,-99.99,,2013-04-23 23:03:00,
2013-04-23 18:12:00,36.0,36.0,30.00,North,350,13.0,-999.0,100,-99.99,,,-99.99,,2013-04-23 23:12:00,
2013-04-23 18:22:00,36.0,36.0,30.00,North,350,13.0,-999.0,100,-99.99,,,-99.99,,2013-04-23 23:22:00,
2013-04-23 18:32:00,36.0,36.0,30.01,NNW,340,9.0,-999.0,100,-99.99,,,-99.99,,2013-04-23 23:32:00,
2013-04-23 18:42:00,36.0,36.0,30.01,NNW,340,9.0,-999.0,100,-99.99,,,-99.99,,2013-04-23 23:42:00,
2013-04-23 18:52:00,36.0,36.0,30.01,NNW,340,14.0,-999.0,100,-99.99,,,-99.99,,2013-04-23 23:52:00,
2013-04-23 19:01:00,36.0,36.0,30.01,NNW,340,14.0,-999.0,100,-99.99,,,-99.99,,2013-04-24 00:01:00,
2013-04-23 19:11:00,36.0,36.0,30.01,NNW,340,14.0,-999.0,100,-99.99,,,-99.99,,2013-04-24 00:11:00,
2013-04-23 19:22:00,36.0,36.0,30.02,NNW,340,14.0,20.0,100,-99.99,,,-99.99,,2013-04-24 00:22:00,
2013-04-23 19:32:00,36.0,36.0,30.02,NNW,340,15.0,21.0,100,-99.99,,,-99.99,,2013-04-24 00:32:00,
2013-04-23 19:42:00,36.0,36.0,30.02,NNW,340,16.0,-999.0,100,-99.99,,,-99.99,,2013-04-24 00:42:00,
2013-04-23 19:52:00,36.0,36.0,30.02,NNW,340,16.0,-999.0,100,-99.99,,,-99.99,,2013-04-24 00:52:00,
2013-04-23 20:01:00,36.0,36.0,30.02,NNW,340,16.0,-999.0,100,-99.99,,,-99.99,,2013-04-24 01:01:00,
2013-04-23 20:11:00,36.0,36.0,30.02,NNW,340,16.0,-999.0,100,-99.99,,,-99.99,,2013-04-24 01:11:00,
2013-04-23 20:21:00,36.0,36.0,30.02,NNW,340,12.0,-999.0,100,-99.99,,,-99.99,,2013-04-24 01:21:00,
2013-04-23 20:32:00,36.0,36.0,30.02,NNW,330,14.0,-999.0,100,-99.99,,,-99.99,,2013-04-24 01:32:00,
2013-04-23 20:43:00,36.0,36.0,30.02,NNW,330,14.0,-999.0,100,-99.99,,,-99.99,,2013-04-24 01:43:00,
2013-04-23 20:52:00,36.0,36.0,30.03,NNW,330,13.0,-999.0,100,-99.99,,,-99.99,,2013-04-24 01:52:00,
2013-04-23 21:02:00,36.0,36.0,30.03,NNW,330,13.0,-999.0,100,-99.99,,,-99.99,,2013-04-24 02:02:00,
2013-04-23 21:29:00,36.0,36.0,30.05,NW,320,12.0,-999.0,100,-99.99,,,-99.99,,2013-04-24 02:29:00,
2013-04-23 21:38:00,36.0,36.0,30.05,NW,320,12.0,-999.0,100,-99.99,,,-99.99,,2013-04-24 02:38:00,
2013-04-23 21:50:00,36.0,36.0,30.06,NW,320,12.0,-999.0,100,-99.99,,,-99.99,,2013-04-24 02:50:00,
2013-04-23 22:07:00,36.0,36.0,30.06,NNW,330,12.0,17.0,100,-99.99,,,-99.99,,2013-04-24 03:07:00,
2013-04-23 22:14:00,36.0,36.0,30.06,NNW,330,12.0,17.0,100,-99.99,,,-99.99,,2013-04-24 03:14:00,
2013-04-23 22:27:00,36.0,36.0,30.07,NNW,330,14.0,-999.0,100,-99.99,,,-99.99,,2013-04-24 03:27:00,
2013-04-23 23:01:00,36.0,36.0,30.08,NNW,330,10.0,-999.0,100,-99.99,,,-99.99,,2013-04-24 04:01:00,
2013-04-23 23:03:00,36.0,36.0,30.08,NNW,330,10.0,-999.0,100,-99.99,,,-99.99,,2013-04-24 04:03:00,
2013-04-23 23:12:00,36.0,36.0,30.08,NNW,330,10.0,-999.0,100,-99.99,,,-99.99,,2013-04-24 04:12:00,
2013-04-23 23:23:00,36.0,36.0,30.09,NW,310,8.0,-999.0,100,-99.99,,,-99.99,,2013-04-24 04:23:00,
2013-04-23 23:33:00,36.0,36.0,30.10,NW,310,7.0,-999.0,100,-99.99,,,-99.99,,2013-04-24 04:33:00,
2013-04-23 23:43:00,36.0,36.0,30.10,NW,310,8.0,-999.0,100,-99.99,,,-99.99,,2013-04-24 04:43:00,
2013-04-23 23:53:00,36.0,36.0,30.09,NW,320,8.0,-999.0,100,-99.99,,,-99.99,,2013-04-24 04:53:00,